Location: Lawrence Hall of Science
(37.8785°N, 122.2415°W)
Time: 15:25:41
(UTC-07:00)

Daily predictions for brighter satellites

Satellite Brightness Start Highest point End
(mag) Time Altitude Azimuth Time Altitude Azimuth Time Altitude Azimuth
NOSS 3-1 (C) 3.4 21:00:55 10° SSW 21:06:35 62° ESE 21:12:50 10° NE
Cosmos 1300 4.3 21:04:49 10° NNE 21:07:39 19° ENE 21:10:27 10° ESE
Cosmos 2227 Rocket 3.7 21:06:50 10° SE 21:10:13 16° E 21:13:36 10° ENE
USA 186 2.6 21:09:15 10° SSW 21:11:21 33° W 21:13:33 10° NNW
CZ-4 DEB 3.2 21:10:37 10° S 21:13:47 64° W 21:16:59 10° NNW
Cosmos 2112 Rocket 4.1 21:08:40 10° NNW 21:13:54 64° ENE 21:19:08 10° SSE
H-2A R/B 2.4 21:14:18 10° SSE 21:18:41 53° ENE 21:23:05 10° N
Cosmos 2266 Rocket 4.0 21:14:37 10° S 21:20:54 88° E 21:27:07 10° N
OTV 4 0.9 21:20:19 10° SW 21:23:08 40° SSE 21:25:57 10° E
SPOT 5 3.6 21:19:21 10° SE 21:23:35 37° ENE 21:28:04 10° N
Cosmos 1666 Rocket 4.4 21:20:12 10° SSE 21:24:05 32° E 21:28:01 10° NNE
H-2A R/B 4.3 21:22:24 10° SSW 21:25:53 34° W 21:29:22 10° NNW
Cosmos 2298 Rocket 4.1 21:22:26 10° S 21:27:37 56° ESE 21:32:49 10° NNE
Hubble Space Telescope 2.4 21:25:50 10° SSW 21:28:33 17° SSE 21:30:22 13° SE
Cosmos 1726 3.3 21:28:08 10° NNE 21:31:27 28° ENE 21:33:54 15° SE
Cosmos 2333 Rocket 3.6 21:28:44 10° N 21:33:28 25° ENE 21:37:44 12° ESE
Cosmos 2297 Rocket 3.5 21:33:34 13° SE 21:36:34 19° E 21:40:26 10° ENE
Meteor 1-4 Rocket 3.9 21:36:24 10° NNE 21:39:30 24° ENE 21:41:20 17° ESE
Cosmos 2315 Rocket 4.0 21:34:09 10° N 21:40:21 73° E 21:46:32 10° SSE
Cosmos 2219 Rocket 3.0 21:35:41 10° N 21:40:49 36° ENE 21:44:50 16° ESE
Cosmos 2058 2.8 21:38:21 10° S 21:42:25 79° E 21:46:33 10° N
Cosmos 2151 3.6 21:39:54 10° SSW 21:44:00 56° W 21:48:09 10° N
COSMOS 2428 2.7 21:39:58 10° NNW 21:45:41 81° ENE 21:50:26 15° SSE
DELTA 2 R/B (1) 4.4 21:42:35 10° W 21:47:39 37° SSW 21:51:24 17° SSE
Cosmos 1244 Rocket 4.5 21:42:46 10° S 21:49:03 72° E 21:55:17 10° NNE
Cosmos 1680 Rocket 4.3 21:44:12 10° NNW 21:49:15 50° WSW 21:54:20 10° S
Tiangong 1 2.5 21:50:26 10° W 21:53:23 38° N 21:56:19 10° ENE
Terra 3.8 21:53:15 11° E 21:55:26 15° ENE 21:57:59 10° NNE
Delta 2 Rocket 3.3 21:54:02 10° W 21:57:40 47° SSW 21:59:11 27° SE
Cosmos 1939 Rocket 3.6 21:54:37 10° S 21:58:26 50° W 22:02:12 10° NNW
Cosmos 1898 Rocket 3.5 21:53:32 10° SSW 21:58:42 86° WNW 22:03:57 10° NNE
H-2A R/B 3.7 21:56:03 14° ESE 21:58:54 21° ENE 22:02:53 10° NNE
Cosmos 858 Rocket 4.5 21:55:36 10° SSW 22:00:49 89° ESE 22:06:02 10° NNE
COSMOS 2455 4.5 21:56:18 10° N 22:00:54 22° NE 22:04:58 12° E
CZ-4 SHROUD 3.1 22:01:21 25° S 22:03:03 87° W 22:06:11 10° NNW
Cosmos 1980 4.3 22:00:08 10° N 22:05:29 42° ENE 22:08:41 22° ESE
Cosmos 1745 Rocket 4.2 22:01:30 17° SSE 22:06:12 50° E 22:12:07 10° NNE
SL-23 DEB 4.4 22:03:04 10° WNW 22:07:44 48° SW 22:09:20 27° SSE
MetOp-B 4.1 22:04:48 18° SSE 22:08:48 85° ENE 22:14:11 10° NNW
SPOT 1/Viking Rocket 3.6 22:08:10 23° SSE 22:11:17 62° ENE 22:16:23 10° N
Cosmos 1626 3.1 22:11:29 27° ESE 22:11:59 28° E 22:15:15 10° NNE
NOSS 3-1 (A) 4.0 22:06:36 10° SW 22:12:23 59° NW 22:18:47 10° NNE
Sich 1 3.1 22:08:25 10° S 22:12:45 79° W 22:17:09 10° N
OAO 2 Rocket 3.4 22:08:02 10° WSW 22:13:18 64° S 22:16:59 20° E
Cosmos 1271 Rocket 2.7 22:10:31 10° N 22:14:22 67° E 22:16:00 33° SSE
ERBS 3.2 22:12:04 10° SW 22:15:30 53° NW 22:18:55 10° NNE
YAOGAN 6 2.5 22:13:57 31° SSE 22:15:36 85° ENE 22:19:11 10° N
Iridium 2 3.9 22:15:42 34° SE 22:17:00 51° E 22:20:45 10° NNE
Cosmos 2237 Rocket 2.7 22:11:42 10° N 22:17:13 48° ENE 22:20:07 26° ESE
Cosmos 1633 Rocket 3.3 22:16:39 11° SSW 22:20:46 67° W 22:25:06 10° N
Cosmos 1862 Rocket 4.3 22:17:07 10° N 22:21:07 35° ENE 22:22:14 30° ESE
Cosmos 2082 3.6 22:16:12 10° S 22:21:52 69° ESE 22:27:34 10° NNE
Cosmos 2360 Rocket 4.3 22:21:27 10° NW 22:25:30 20° W 22:29:32 10° SW
Cosmos 1703 3.3 22:25:32 25° SSW 22:27:45 80° W 22:31:41 10° N
CZ-4C R/B 3.8 22:27:55 34° E 22:28:17 36° ENE 22:31:30 10° N
NOAA 11 4.2 22:26:59 29° SSE 22:29:49 74° ENE 22:35:17 10° N
Cosmos 2242 Rocket 3.7 22:25:20 10° N 22:29:50 76° W 22:32:08 29° S
Envisat 4.4 22:28:49 10° SSW 22:33:20 32° W 22:37:53 10° NNW
ATLAS 2AS CENTAUR R/B 2.9 22:26:56 10° SSW 22:34:18 78° ESE 22:42:19 10° NE
CZ-4 R/B 3.8 22:29:30 10° NNE 22:34:25 83° ESE 22:37:15 25° S
USA 245 3.0 22:35:52 45° WNW 22:35:52 45° WNW 22:37:42 10° NNW
Cosmos 192 4.4 22:39:26 10° NNW 22:44:19 62° ENE 22:45:44 43° SE
ATLAS 3B R/B 3.3 22:37:54 10° NNW 22:44:36 46° NE 22:47:56 27° ESE
CZ-3A R/B 4.1 22:30:04 10° WSW 22:45:12 29° SSW 22:46:45 26° S
USA 32 4.5 22:45:33 10° NNW 22:50:43 58° W 22:53:36 26° SSW
Cosmos 2227 Rocket 2.6 22:48:04 10° SW 22:53:39 61° WNW 22:59:17 10° NNE
DELTA 2 DEB (DPAF) 4.1 22:56:34 53° S 22:57:37 85° W 23:02:07 10° NNW
OTV 4 2.2 22:56:24 10° W 22:57:53 26° W 22:57:53 26° W
DMSP B5D2-2 4.0 22:54:48 10° NNE 23:00:00 65° ESE 23:01:16 48° SSE
Okean 1-7 4.5 22:59:20 10° NNE 23:02:33 23° ENE 23:02:33 23° ENE
Cosmos 1455 2.4 23:01:49 10° NNW 23:05:35 61° W 23:05:54 58° WSW
BREEZE-M DEB (TANK) 3.7 23:04:24 10° NNW 23:06:26 31° NE 23:06:26 31° NE
NOSS 2-3 (E) 3.8 23:08:25 59° SSE 23:09:01 65° ESE 23:14:24 10° NE
ARGOS 4.0 23:07:47 28° SSW 23:10:10 44° W 23:15:19 10° NNW
SL-16 R/B 2.4 23:07:27 10° NNW 23:13:06 61° ENE 23:14:25 48° ESE
Landsat 7 4.2 23:15:46 46° SSW 23:16:48 57° W 23:21:30 10° NNW
Cosmos 2333 Rocket 2.9 23:12:28 10° NW 23:17:55 45° WSW 23:19:45 34° SSW
Cosmos 2297 Rocket 2.9 23:15:16 13° SW 23:20:07 53° WNW 23:25:40 10° NNE
Lacrosse 4 Rocket 1.5 23:17:05 10° NNW 23:21:32 71° ENE 23:21:37 71° ENE
SeaSat 1 4.4 23:20:10 16° ENE 23:21:49 18° NE 23:25:06 10° N
Cosmos 1703 Rocket 3.6 23:18:25 10° N 23:22:39 68° ENE 23:22:39 68° ENE
Cosmos 44 Rocket 3.3 23:22:01 63° S 23:22:50 80° ESE 23:28:05 10° NNE
Cosmos 2219 Rocket 3.6 23:19:53 10° NW 23:24:35 28° WSW 23:26:34 23° SW
Cosmos 1933 3.4 23:21:44 10° N 23:25:27 72° NNE 23:25:27 72° NNE
Tiangong 1 3.2 23:27:30 10° WNW 23:29:30 27° NNW 23:29:30 27° NNW
Terra 2.1 23:32:08 53° SW 23:32:40 57° W 23:37:22 10° NNW
Cosmos 1269 Rocket 3.9 23:27:25 10° NNW 23:32:44 75° WSW 23:33:24 65° SSW
NOSS 2-3 (C) 4.0 23:35:00 47° SW 23:36:23 74° NW 23:41:57 10° NNE
H-2A R/B 2.7 23:36:42 41° SW 23:37:53 48° W 23:43:10 10° NNW
Cosmos 2221 Rocket 3.8 23:42:10 10° NNW 23:46:31 66° WNW 23:46:31 66° WNW
COSMOS 2455 2.9 23:41:20 10° NNW 23:47:18 64° WSW 23:48:06 58° SSW
Cosmos 1603 4.3 23:41:58 10° N 23:47:25 45° ENE 23:48:14 42° E
Cosmos 389 Rocket 4.0 23:44:11 10° N 23:46:22 35° N 23:46:22 35° N
Spot 4 4.3 23:47:41 51° WSW 23:47:57 52° W 23:52:42 10° NNW
Cosmos 1048 Rocket 4.1 23:43:13 10° NNW 23:48:34 68° WSW 23:48:57 65° SW
Cosmos 158 Rocket 4.0 23:44:58 10° NNW 23:50:11 63° ENE 23:50:15 63° ENE
